EW2785 Weather Reports


time (UTC)temp
C
wind
direction
speed
KPH
gust
KPH
rain 1hr
cm
rain 24hr
cm
rain mn
cm
humidity
%
barometer
mb
20260902094545 17 132 0.0 3.2 0.00 0.36 0.00 76 1018.9
20260902093047 17 211 0.0 3.2 0.00 0.36 0.00 76 1019.1
20260902091543 18 148 0.0 3.2 0.00 0.36 0.00 75 1019.0
20260902090043 18 146 0.0 4.8 0.00 0.36 0.00 75 1019.0
20260902084551 18 126 1.6 3.2 0.00 0.36 0.00 76 1018.8
20260902083046 18 126 0.0 3.2 0.00 0.36 0.00 77 1018.7
20260902081548 18 126 0.0 4.8 0.00 0.36 0.00 76 1018.7
20260902080041 18 149 0.0 3.2 0.00 0.36 0.00 77 1018.9
20260902074540 18 129 0.0 1.6 0.00 0.36 0.00 77 1018.9
20260902073049 18 129 0.0 1.6 0.00 0.36 0.00 78 1019.0
20260902071541 18 129 0.0 3.2 0.00 0.36 0.00 78 1018.9
20260902070039 18 129 0.0 4.8 0.00 0.36 0.00 78 1018.9
20260902064547 18 142 1.6 4.8 0.00 0.36 0.00 79 1018.9
20260902063048 18 142 0.0 6.4 0.00 0.36 0.00 79 1019.1
20260902061535 18 142 0.0 9.7 0.00 0.36 0.00 80 1018.9
20260902060034 18 138 0.0 1.6 0.00 0.36 0.00 83 1018.7
20260902054531 18 138 1.6 4.8 0.00 0.36 0.00 84 1018.5
20260902053031 18 137 0.0 1.6 0.00 0.36 0.00 85 1018.5
20260902051530 18 137 0.0 1.6 0.00 0.36 0.00 86 1018.5
20260902050028 18 137 0.0 3.2 0.00 0.36 0.00 86 1018.5
20260902044527 18 137 0.0 3.2 0.00 0.36 0.00 87 1018.3
20260902043026 18 137 0.0 8.0 0.00 0.36 0.00 87 1018.3
20260902041524 18 135 0.0 1.6 0.00 0.36 0.00 88 1018.4
20260902040023 18 135 1.6 3.2 0.00 0.36 0.36 88 1018.2
20260902034524 18 141 1.6 6.4 0.00 0.36 0.36 88 1017.9
20260902033019 18 150 0.0 3.2 0.00 0.36 0.36 88 1017.8
20260902031519 18 150 0.0 1.6 0.00 0.36 0.36 88 1017.6
20260902030017 18 150 0.0 3.2 0.00 0.36 0.36 87 1017.5
20260902024517 18 150 0.0 1.6 0.00 0.36 0.36 87 1017.6
20260902023019 18 150 0.0 4.8 0.00 0.36 0.36 87 1017.8
20260902021516 18 209 0.0 0.0 0.00 0.36 0.36 87 1017.7
20260902020015 18 209 1.6 4.8 0.00 0.36 0.36 87 1017.6
20260902014529 18 137 0.0 6.4 0.00 0.36 0.36 86 1017.5
20260902013014 18 136 0.0 1.6 0.00 0.36 0.36 86 1017.2
20260902011532 18 136 0.0 3.2 0.00 0.36 0.36 86 1017.3
20260902010012 18 136 1.6 6.4 0.00 0.36 0.36 87 1017.1
20260902004511 18 198 0.0 0.0 0.00 0.36 0.36 87 1017.3
20260902003013 18 198 0.0 0.0 0.00 0.36 0.36 87 1017.2
20260902001513 18 198 0.0 0.0 0.00 0.36 0.36 87 1017.3
20260902000010 18 213 0.0 1.6 0.00 0.36 0.36 86 1017.1
20260901234510 18 168 0.0 1.6 0.00 0.36 0.36 85 1016.9
20260901233009 18 167 0.0 1.6 0.00 0.36 0.36 85 1016.7
20260901231510 19 142 0.0 3.2 0.00 0.36 0.36 85 1016.7
20260901230009 19 142 0.0 3.2 0.00 0.36 0.36 84 1016.7
20260901224511 19 142 0.0 4.8 0.00 0.36 0.36 84 1016.5
20260901223011 19 133 1.6 6.4 0.00 0.36 0.36 84 1016.6
20260901221507 19 130 3.2 8.0 0.00 0.36 0.36 84 1016.4
20260901220007 19 128 1.6 4.8 0.00 0.36 0.36 84 1016.7
20260901214519 19 126 1.6 8.0 0.00 0.36 0.36 84 1016.7
20260901213006 19 138 1.6 8.0 0.00 0.36 0.36 83 1016.5
20260901211508 20 120 1.6 8.0 0.00 0.36 0.36 83 1016.3
20260901210007 20 153 1.6 4.8 0.00 0.36 0.36 84 1016.1
20260901204504 20 135 0.0 4.8 0.00 0.36 0.36 83 1016.1
20260901203004 20 135 3.2 6.4 0.00 0.36 0.36 82 1016.1
20260901201504 20 143 0.0 3.2 0.00 0.36 0.36 82 1016.1
20260901200114 20 176 0.0 3.2 0.00 0.36 0.36 84 1016.0
20260901194502 20 171 0.0 4.8 0.00 0.36 0.36 83 1015.9
20260901193004 20 198 0.0 8.0 0.00 0.36 0.36 83 1016.0
20260901191502 20 213 0.0 8.0 0.00 0.36 0.36 84 1016.1
20260901190002 20 215 4.8 8.0 0.00 0.36 0.36 84 1016.1
20260901184607 20 208 0.0 4.8 0.00 0.36 0.36 84 1016.2
20260901183108 20 217 0.0 8.0 0.00 0.36 0.36 85 1016.2
20260901181601 20 201 3.2 11.3 0.00 0.36 0.36 85 1016.1
20260901180057 20 220 0.0 6.4 0.00 0.36 0.36 86 1016.2
20260901174554 19 211 0.0 3.2 0.00 0.36 0.36 88 1016.2
20260901173055 18 205 0.0 8.0 0.00 0.36 0.36 89 1016.3
20260901171557 18 209 0.0 3.2 0.00 0.36 0.36 90 1016.2
20260901170050 18 171 0.0 3.2 0.00 0.36 0.36 89 1016.2
20260901164548 18 217 3.2 6.4 0.00 0.36 0.36 90 1016.3
20260901163056 18 202 0.0 6.4 0.00 0.36 0.36 91 1016.2
20260901161548 18 319 0.0 0.0 0.00 0.36 0.36 91 1016.0
20260901160044 17 338 0.0 8.0 0.00 0.36 0.36 92 1016.1
20260901154608 17 360 0.0 6.4 0.00 0.36 0.36 92 1016.0
20260901153047 17 20 0.0 4.8 0.00 0.36 0.36 92 1016.2
20260901151542 17 327 0.0 6.4 0.00 0.36 0.36 92 1016.3
20260901150049 17 333 1.6 3.2 0.00 0.36 0.36 92 1016.4
20260901144543 17 317 0.0 6.4 0.00 0.36 0.36 93 1016.3
20260901143041 17 238 0.0 1.6 0.00 0.36 0.36 93 1016.0
20260901141553 17 238 0.0 3.2 0.00 0.36 0.36 93 1015.9
20260901140040 17 237 0.0 0.0 0.00 0.36 0.36 93 1015.5
20260901134537 17 237 0.0 0.0 0.00 0.36 0.36 93 1015.5
20260901133036 17 237 0.0 0.0 0.03 0.36 0.36 93 1016.1
20260901131536 16 237 0.0 1.6 0.05 0.36 0.36 93 1016.2
20260901130034 16 243 0.0 0.0 0.08 0.36 0.36 93 1016.6
20260901124541 16 243 0.0 1.6 0.13 0.36 0.36 93 1016.5
20260901123033 16 300 0.0 0.0 0.10 0.33 0.33 93 1016.4
20260901121533 16 300 0.0 0.0 0.13 0.30 0.30 92 1016.5
20260901120031 16 300 0.0 1.6 0.13 0.28 0.28 92 1016.7
20260901114530 17 300 0.0 1.6 0.13 0.23 0.23 92 1016.7
20260901113029 17 300 0.0 8.0 0.13 0.20 0.20 92 1016.8
20260901111528 17 217 0.0 3.2 0.15 0.18 0.18 92 1016.5
20260901110026 17 217 0.0 0.0 0.13 0.13 0.13 91 1016.2
20260901104525 17 217 0.0 0.0 0.08 0.08 0.08 91 1016.1
20260901103027 17 217 0.0 0.0 0.08 0.08 0.08 91 1016.3
20260901101525 17 217 0.0 0.0 0.03 0.03 0.03 91 1016.2
20260901100023 17 217 0.0 0.0 0.00 0.00 0.00 91 1016.3